Date String (YYYY-MM-DD hh:mm:ss) UTC,Instrument flags,absolute air pressure of the measurement (hPa),sample flow rate (lpm),inlet stack bypass flow (lpm),air temperature of the measurement (°C),ambient temperature measured by the external sensor (°C),aerosol sample conditioner tube jacket temperature (°C),OPC LED temperature (°C),internal box temperature (°C),relative humidity of the measurement (%),span deviation,mass concentration of particles derived from Lorenz-Mie calculation of OPC scattering (μg/m³),mass concentration of particles derived from Lorenz-Mie calculation of OPC scattering (μg/m³),mass concentration of particles derived from Lorenz-Mie calculation of OPC scattering (μg/m³)
DateTimeUTC,F1_M11,P_M11,Q1_M11,Q2_M11,T1_M11,T2_M11,T3_M11,T4_M11,T5_M11,U1_M11,ZSPAN_M11,X0_M11,X2_M11,X1_M11
2023-11-02 02:00:00,SystemResetWarning,0831.5,5.01,000.00,026.7,025.7,000.0,035.1,028.1,9.5,0000.0,0001.70,0001.24,0001.09
2023-11-02 02:01:00,SystemResetWarning,0831.5,5.00,000.00,026.7,025.7,000.0,035.1,028.1,9.5,0000.0,0001.80,0001.27,0001.09
2023-11-02 02:02:00,SystemResetWarning,0831.6,5.01,000.00,026.7,025.6,000.0,035.1,028.1,9.5,0000.0,0001.79,0001.28,0001.11
2023-11-02 02:03:00,SystemResetWarning,0831.5,5.00,000.00,026.7,025.6,000.0,035.1,028.2,9.5,0000.0,0001.78,0001.28,0001.12
2023-11-02 02:04:00,SystemResetWarning,0831.5,5.00,000.00,026.7,025.6,000.0,035.1,028.2,9.6,0000.0,0001.74,0001.27,0001.14
2023-11-02 02:05:00,SystemResetWarning,0831.5,5.00,000.00,026.7,025.7,000.0,035.1,028.2,9.6,0000.0,0001.76,0001.31,0001.18
2023-11-02 02:06:00,SystemResetWarning,0831.5,5.00,000.00,026.7,025.7,000.0,035.1,028.2,9.6,0000.0,0002.12,0001.35,0001.22
2023-11-02 02:07:00,SystemResetWarning,0831.5,4.99,000.00,026.7,025.7,000.0,035.1,028.2,9.6,0000.0,0002.67,0001.35,0001.24
2023-11-02 02:08:00,SystemResetWarning,0831.5,5.00,000.00,026.7,025.7,000.0,035.1,028.2,9.5,0000.0,0002.70,0001.38,0001.25
2023-11-02 02:09:00,SystemResetWarning,0831.5,5.00,000.00,026.7,025.7,000.0,035.1,028.2,9.4,0000.0,0002.82,0001.40,0001.26
2023-11-02 02:10:00,SystemResetWarning,0831.5,5.00,000.00,026.8,025.8,000.0,035.1,028.2,9.5,0000.0,0002.93,0001.46,0001.30
2023-11-02 02:11:00,SystemResetWarning,0831.5,5.02,000.00,026.8,025.8,000.0,035.1,028.2,9.5,0000.0,0002.95,0001.49,0001.34
2023-11-02 02:12:00,SystemResetWarning,0831.5,5.00,000.00,026.8,025.8,000.0,035.1,028.2,9.5,0000.0,0003.08,0001.56,0001.41
2023-11-02 02:13:00,SystemResetWarning,0831.5,4.99,000.00,026.8,025.8,000.0,035.1,028.2,9.6,0000.0,0003.23,0001.62,0001.46
2023-11-02 02:14:00,SystemResetWarning,0831.5,4.99,000.00,026.8,025.8,000.0,035.1,028.3,9.6,0000.0,0003.36,0001.71,0001.54
2023-11-02 02:15:00,SystemResetWarning,0831.4,5.00,000.00,026.8,025.8,000.0,035.1,028.2,9.6,0000.0,0003.59,0001.83,0001.63
2023-11-02 02:16:00,SystemResetWarning,0831.5,5.01,000.00,026.8,025.8,000.0,035.2,028.2,9.6,0000.0,0003.76,0001.94,0001.73
2023-11-02 02:17:00,SystemResetWarning,0831.5,5.01,000.00,026.8,025.8,000.0,035.2,028.2,9.6,0000.0,0003.74,0002.01,0001.78
2023-11-02 02:18:00,SystemResetWarning,0831.4,4.99,000.00,026.8,025.8,000.0,035.2,028.2,9.7,0000.0,0003.07,0002.15,0001.91
2023-11-02 02:19:00,SystemResetWarning,0831.4,4.99,000.00,026.8,025.8,000.0,035.2,028.3,9.7,0000.0,0003.53,0002.38,0002.10
2023-11-02 02:20:00,SystemResetWarning,0831.5,4.99,000.00,026.8,025.8,000.0,035.2,028.2,9.7,0000.0,0003.74,0002.58,0002.27
2023-11-02 02:21:00,SystemResetWarning,0831.4,5.01,000.00,026.8,025.8,000.0,035.2,028.3,9.7,0000.0,0003.89,0002.73,0002.41
2023-11-02 02:22:00,SystemResetWarning,0831.4,5.01,000.00,026.8,025.7,000.0,035.2,028.2,9.8,0000.0,0004.19,0002.90,0002.54
2023-11-02 02:23:00,SystemResetWarning,0831.4,4.99,000.00,026.8,025.7,000.0,035.2,028.2,9.7,0000.0,0004.40,0003.04,0002.66
2023-11-02 02:24:00,SystemResetWarning,0831.5,4.99,000.00,026.8,025.7,000.0,035.2,028.2,9.6,0000.0,0004.52,0003.15,0002.80
2023-11-02 02:25:00,SystemResetWarning,0831.5,5.00,000.00,026.8,025.7,000.0,035.2,028.2,9.8,0000.0,0004.72,0003.19,0002.83
2023-11-02 02:26:00,SystemResetWarning,0831.5,5.02,000.00,026.8,025.8,000.0,035.2,028.2,10.0,0000.0,0004.81,0003.24,0002.91
2023-11-02 02:27:00,SystemResetWarning,0831.5,5.00,000.00,026.8,025.8,000.0,035.2,028.2,10.0,0000.0,0004.82,0003.26,0002.95
2023-11-02 02:28:00,SystemResetWarning,0831.5,4.99,000.00,026.8,025.8,000.0,035.2,028.2,9.8,0000.0,0004.82,0003.28,0002.99
2023-11-02 02:29:00,SystemResetWarning,0831.5,5.01,000.00,026.8,025.8,000.0,035.2,028.2,9.8,0000.0,0004.73,0003.25,0002.94
2023-11-02 02:30:00,SystemResetWarning,0831.5,5.00,000.00,026.8,025.8,000.0,035.2,028.3,9.8,0000.0,0004.39,0003.15,0002.80
2023-11-02 02:31:00,SystemResetWarning,0831.5,4.99,000.00,026.8,025.8,000.0,035.2,028.2,9.9,0000.0,0004.25,0003.08,0002.69
2023-11-02 02:32:00,SystemResetWarning,0831.5,5.00,000.00,026.8,025.8,000.0,035.2,028.2,9.9,0000.0,0004.09,0002.98,0002.60
2023-11-02 02:33:00,SystemResetWarning,0831.5,5.00,000.00,026.8,025.8,000.0,035.2,028.3,9.8,0000.0,0003.90,0002.86,0002.48
2023-11-02 02:34:00,SystemResetWarning,0831.5,5.00,000.00,026.8,025.8,000.0,035.2,028.3,9.9,0000.0,0003.60,0002.68,0002.30
2023-11-02 02:35:00,SystemResetWarning,0831.5,5.00,000.00,026.8,025.8,000.0,035.2,028.3,9.9,0000.0,0003.32,0002.45,0002.11
2023-11-02 02:36:00,SystemResetWarning,0831.5,5.00,000.00,026.8,025.8,000.0,035.2,028.3,9.9,0000.0,0003.02,0002.30,0001.99
2023-11-02 02:37:00,SystemResetWarning,0831.6,5.00,000.00,026.8,025.8,000.0,035.2,028.3,9.9,0000.0,0002.73,0002.10,0001.83
2023-11-02 02:38:00,SystemResetWarning,0831.5,4.99,000.00,026.8,025.8,000.0,035.2,028.2,9.9,0000.0,0002.53,0001.93,0001.67
2023-11-02 02:39:00,SystemResetWarning,0831.5,5.00,000.00,026.8,025.8,000.0,035.2,028.3,9.9,0000.0,0003.26,0001.79,0001.54
2023-11-02 02:40:00,SystemResetWarning,0831.5,5.01,000.00,026.8,025.9,000.0,035.2,028.3,9.9,0000.0,0003.29,0001.71,0001.46
2023-11-02 02:41:00,SystemResetWarning,0831.5,5.00,000.00,026.8,025.8,000.0,035.2,028.3,9.8,0000.0,0003.21,0001.66,0001.42
2023-11-02 02:42:00,SystemResetWarning,0831.5,5.00,000.00,026.8,025.8,000.0,035.2,028.3,9.6,0000.0,0003.29,0001.59,0001.36
2023-11-02 02:43:00,SystemResetWarning,0831.5,4.99,000.00,026.8,025.8,000.0,035.2,028.3,9.5,0000.0,0004.08,0001.53,0001.32
2023-11-02 02:44:00,SystemResetWarning,0831.5,5.00,000.00,026.8,025.8,000.0,035.2,028.3,9.6,0000.0,0004.09,0001.53,0001.31
2023-11-02 02:45:00,SystemResetWarning,0831.4,4.99,000.00,026.8,025.8,000.0,035.2,028.3,9.7,0000.0,0004.18,0001.52,0001.31
2023-11-02 02:46:00,SystemResetWarning,0831.4,4.99,000.00,026.8,025.8,000.0,035.2,028.3,9.7,0000.0,0004.33,0001.55,0001.32
2023-11-02 02:47:00,SystemResetWarning,0831.4,5.00,000.00,026.8,025.7,000.0,035.2,028.3,9.8,0000.0,0004.33,0001.56,0001.34
2023-11-02 02:48:00,SystemResetWarning,0831.4,5.01,000.00,026.8,025.7,000.0,035.2,028.3,9.6,0000.0,0005.37,0001.57,0001.35
2023-11-02 02:49:00,SystemResetWarning,0831.4,5.00,000.00,026.8,025.7,000.0,035.2,028.2,9.6,0000.0,0005.52,0001.56,0001.35
2023-11-02 02:50:00,SystemResetWarning,0831.3,5.00,000.00,026.8,025.7,000.0,035.2,028.2,9.8,0000.0,0004.87,0001.57,0001.37
2023-11-02 02:51:00,SystemResetWarning,0831.4,5.00,000.00,026.8,025.6,000.0,035.2,028.2,9.8,0000.0,0004.46,0001.57,0001.38
2023-11-02 02:52:00,SystemResetWarning,0831.4,5.00,000.00,026.8,025.6,000.0,035.2,028.2,10.0,0000.0,0004.41,0001.54,0001.37
2023-11-02 02:53:00,SystemResetWarning,0831.4,5.01,000.00,026.8,025.6,000.0,035.2,028.2,9.9,0000.0,0004.48,0001.54,0001.38
2023-11-02 02:54:00,SystemResetWarning,0831.3,5.01,000.00,026.8,025.6,000.0,035.2,028.2,9.8,0000.0,0003.50,0001.55,0001.40
2023-11-02 02:55:00,SystemResetWarning,0831.4,5.00,000.00,026.8,025.5,000.0,035.2,028.2,9.8,0000.0,0003.38,0001.52,0001.39
2023-11-02 02:56:00,SystemResetWarning,0831.3,5.00,000.00,026.7,025.5,000.0,035.2,028.1,9.9,0000.0,0003.21,0001.49,0001.38
2023-11-02 02:57:00,SystemResetWarning,0831.4,5.00,000.00,026.7,025.5,000.0,035.2,028.1,9.9,0000.0,0003.08,0001.50,0001.39
2023-11-02 02:58:00,SystemResetWarning,0831.3,4.99,000.00,026.7,025.5,000.0,035.2,028.1,9.8,0000.0,0003.14,0001.51,0001.40
2023-11-02 02:59:00,SystemResetWarning,0831.4,5.00,000.00,026.7,025.5,000.0,035.2,028.2,9.8,0000.0,0002.36,0001.53,0001.41
